Regional Weather Roundup
Issued by NWS San Diego, CA

Home | Current Version | Previous Version | Text Only | Print | Product List | Glossary On
Versions: 1 2 3 4 5 6 7 8 9 10 11 12 13 14 15 16 17 18 19 20 21 22 23 24 25 26 27 28 29 30 31 32 33 34 35 36 37 38 39 40 41 42 43 44 45 46 47 48 49 50
000
ASUS46 KSGX 301511
RWRSGX

SAN DIEGO HOURLY WEATHER ROUNDUP
NATIONAL WEATHER SERVICE SAN DIEGO CA
800 AM PDT FRI SEP 30 2016

NOTE: "FAIR" INDICATES FEW OR NO CLOUDS BELOW 12,000 FEET WITH NO
SIGNIFICANT WEATHER AND/OR OBSTRUCTIONS TO VISIBILITY.

CAZ042-043-060-061-PZZ750-775-301600-

GREATER SAN DIEGO AREA

CITY           SKY/WX    TMP DP  RH WIND       PRES   REMARKS
LINDBERGH FLD  MOSUNNY   72  64  76 NW5       30.04R
NATIONAL CITY    N/A     69  63  81 CALM      30.03R
CHULA VISTA      N/A     70  64  81 CALM      29.95R
IMPERIAL BEACH MOSUNNY   72  65  78 NW5       30.03R
BROWN FIELD    SUNNY     75  61  60 SE5       30.03R
MIRAMAR MCAS   SUNNY     74  61  63 N3        30.03R
MONTGOMERY FLD SUNNY     72  61  68 N5        30.03R

$$

NORTH SAN DIEGO COUNTY

CITY           SKY/WX    TMP DP  RH WIND       PRES   REMARKS
CAMP PENDLETON SUNNY     65  55  70 CALM      30.03R
OCEANSIDE AP   SUNNY     67  56  67 CALM      30.02R
OCEANSIDE HBR    N/A     69  61  74 CALM      30.05R
VISTA            N/A     65  58  78 CALM      30.00R
CARLSBAD       SUNNY     70  57  63 CALM      30.02R
DEL MAR          N/A     67  66  97 CALM      30.05R
LA JOLLA SCRIP   N/A     68  66  92 NW2       30.02R
FALLBROOK        N/A     71  58  63 CALM      30.02R
ESCONDIDO        N/A     67  56  67 CALM      30.04R
SAN MARCOS       N/A     69  56  63 CALM      30.06R
POWAY            N/A     70  60  69 CALM      30.03R

$$

EAST SAN DIEGO COUNTY

CITY           SKY/WX    TMP DP  RH WIND       PRES   REMARKS
RAMONA         SUNNY     70  54  56 CALM      30.07R
SANTEE LAKES     N/A     67  58  72 CALM      30.01R
LA MESA          N/A     72  57  60 CALM      29.95R
JAMUL            N/A     70  59  68 CALM      30.02R
DESCANSO N       N/A     66  52  61 NE2       29.98S
MT. LAGUNA OBS   N/A     60  44  56 CALM      29.86R
CAMPO            N/A     62  55  77 NE8       30.10S

$$

ORANGE COUNTY AND THE LOS ANGELES BASIN

CITY           SKY/WX    TMP DP  RH WIND       PRES   REMARKS
JOHN WAYNE AP  MOSUNNY   70  63  78 CALM      30.03R
LAGUNA BEACH     N/A     62  57  83 NW2       29.98R
LAKE FOREST FR   N/A     70  51  50 CALM      29.92R
HUNTINGTON BCH   N/A     67  67  99 CALM      30.05R
LOS ALAMITOS   SUNNY     68  62  82 CALM      30.03R
FULLERTON      SUNNY     71  58  63 CALM      30.02R
LONG BEACH     SUNNY     71  63  75 CALM      30.03R
L.A. AP        SUNNY     71  63  75 VRB3      30.03R
L.A. DOWNTOWN  SUNNY     69  62  78 CALM      30.02R

$$

THE INLAND EMPIRE

CITY           SKY/WX    TMP DP  RH WIND       PRES   REMARKS
CHINO          SUNNY     69  60  73 CALM      30.06R
ONTARIO        MOSUNNY   73  51  46 CALM      30.06R
RIVERSIDE AP   SUNNY     70  54  56 CALM      30.06R
MORENO VALLEY    N/A     71  56  58 CALM      28.19R
MARCH ARB      SUNNY     68  50  51 CALM      30.08R
HORSETHIEF CYN   N/A     70  50  48 CALM      30.05R
PERRIS           N/A     65  54  65 CALM      30.09S
HEMET EAST       N/A     69  47  44 CALM      30.06R
FRENCH VALLEY  FAIR      68  52  56 CALM      30.08R
TEMECULA         N/A     64  56  77 CALM      30.13R

$$

SAN BERNARDINO AND RIVERSIDE COUNTY MOUNTAINS

CITY           SKY/WX    TMP DP  RH WIND       PRES   REMARKS
BIG BEAR AP    SUNNY     41  37  87 CALM      30.36S
ANGELUS OAKS     N/A     54  42  64 CALM      29.98S
PINE COVE        N/A     58  46  63 CALM      30.04R

$$

SOUTHERN DESERT INCLUDING THE COACHELLA VALLEY

CITY           SKY/WX    TMP DP  RH WIND       PRES   REMARKS
PALM SPRINGS   MOSUNNY   79  55  43 CALM      30.01R
PALM DESERT      N/A     77  58  51 CALM      27.91R
THERMAL        SUNNY     74  55  51 CALM      29.96R
BLYTHE         SUNNY     78  50  37 NW7       30.00R
IMPERIAL AP    SUNNY     79  58  48 W8        29.96S
EL CENTRO NAS  MOSUNNY   78  53  41 W6        29.99R
MEXICALI       MOSUNNY   79  54  41 W3        29.98R

$$

UPPER DESERT

CITY           SKY/WX    TMP DP  RH WIND       PRES   REMARKS
VICTORVILLE AP SUNNY     66  45  45 CALM      30.15R
HESPERIA         N/A     68  48  49 SW5       30.13R
PALMDALE       SUNNY     69  46  43 S3        30.13R
LANCASTER      SUNNY     65  43  44 CALM      30.12R
EDWARDS AFB    SUNNY     65  41  41 SW8       30.10R
DAGGETT        MOSUNNY   73  47  39 W9        30.09R
29 PALMS N     SUNNY     70  45  40 CALM      30.17R
NEEDLES        MOSUNNY   77  51  40 NW6       30.04R

$$

REGIONAL REPORTS

CITY           SKY/WX    TMP DP  RH WIND       PRES   REMARKS
SANTA BARBARA  FOG       62  62 100 CALM      30.03S VSB 1/2
LAS VEGAS NV   MOSUNNY   75  47  36 CALM      30.12R
PHOENIX AZ     MOSUNNY   78  58  49 VRB5      30.05R
TIJUANA          N/A    N/A N/A N/A MISG        N/A
ENSENADA NW      N/A     71  32  23 CALM      29.99R

$$

OFFSHORE ISLANDS

CITY           SKY/WX    TMP DP  RH WIND       PRES   REMARKS
CATALINA ARPT  SUNNY     76  48  37 W5        30.09R
SAN CLEMENTE I PTSUNNY   65  64  97 SW9       30.05S
SAN NICOLAS IS MOSUNNY   68  57  68 CALM      30.05R

$$

MARINE AND OFFSHORE BUOY REPORTS

STATION/POSITION SKY/WX   TEMP    WIND        PRES    SWELL
                          AIR SEA DIR/SP/G            HT/PER/DIR
                          (F)     (DEG/KT/KT) (MB)    (FT/S/D)
TANNER BANKS               62 67  310/ 12/ 16 1017.5R   3/190/15
S CLEMENTE BASIN           68 69  310/ 10/ 10 1016.7R   5/170/15
SO. S. ROSA ISLA           61 66  310/ 17/ 19 1017.2R   5/210/15
W. S. BARBARA CH           58 64  310/ 19/ 23 1017.3R   3/200/16
M. S. BARBARA CH                  220/ 10/ 12 1017.1S
S. MONICA BASIN            67 70  320/  8/ 10 1016.4R
OCEANSIDE OFFSHR              71                N/A     3/190/15
TORREY PINES OTR              70                N/A     3/190/15
POINT LOMA SOUTH              71                N/A     3/180/15

$$




USA.gov is the U.S. government's official web portal to all federal, state and local government web resources and services.